Kezdőlap
METAR-TAF:

METAR-TAF

Repülőterek :

Appleton Municipal Airport

Appleton, Minnesota, Amerikai Egyesült Államok

földrajzi szélesség: 45-13-39N, földrajzi hosszúság: 096-00-15W, magasság: 310 m

Jelenlegi meteorológiai megfigyelések

A jelentés 26 perccel ezelõtt készült, 16:33 UTC
Déli szél 12 kt széllökések: 18 kt
Hőmérséklet 29°C
Páratartalom 66%
Légköri nyomás 1012 hPa
Látótávolság: 16.1 km
Derült ég

METAR: KAQP 131633Z AUTO 18012G18KT 10SM CLR 29/22 A2989 RMK AO2

Idő: 11:59 (16:59 UTC)


TAF: hiányzik

Meteorológiai megfigyelések és előrejelzések több, mint 4000 repülőtéren (METAR és TAF jelentéseket).

A térképen piros és sárga pontok jelzik az elérhető meteorológiai állomásokat.

Mozgassa az egeret a pont fölött, hogy megjelenjen az állomás neve.

Azután kattintson az időjárási megfigyelések és előrejelzések megtekintéséhez.

A térkép megváltoztatása: kattintson a fekete keresztel jelölt zöld gombra ráközelítéshez, a vonallal jelölt zöld gombra távolításhoz, vagy a zöld nyilakra a szomszédos térképek eléréséhez.


METAR-TAF: